Time,TemperatureF,DewpointF,PressureIn,WindDirection,WindDirectionDegrees,WindSpeedMPH,WindSpeedGustMPH,Humidity,HourlyPrecipIn,Conditions,Clouds,dailyrainin,SoftwareType,DateUTC
2014-09-22 00:01:00,48.9,43.7,30.16,West,270,8.0,8.0,82,0.00,,,0.00,meteohub,2014-09-22 05:01:00,
2014-09-22 00:06:00,48.9,43.7,30.16,West,270,8.0,8.0,82,0.00,,,0.00,meteohub,2014-09-22 05:06:00,
2014-09-22 00:11:00,48.9,44.1,30.16,West,270,5.0,8.0,83,0.00,,,0.00,meteohub,2014-09-22 05:11:00,
2014-09-22 00:17:00,48.7,44.1,30.16,West,270,8.0,8.0,84,0.00,,,0.00,meteohub,2014-09-22 05:17:00,
2014-09-22 00:22:00,48.9,44.2,30.16,West,270,9.0,9.0,84,0.00,,,0.00,meteohub,2014-09-22 05:22:00,
2014-09-22 00:27:00,48.7,44.1,30.16,West,270,8.0,9.0,84,0.00,,,0.00,meteohub,2014-09-22 05:27:00,
2014-09-22 00:32:00,48.4,43.7,30.16,West,270,6.0,9.0,84,0.00,,,0.00,meteohub,2014-09-22 05:32:00,
2014-09-22 00:37:00,48.0,44.1,30.17,West,270,9.0,9.0,86,0.00,,,0.00,meteohub,2014-09-22 05:37:00,
2014-09-22 00:42:00,47.8,43.9,30.17,West,270,9.0,9.0,86,0.00,,,0.00,meteohub,2014-09-22 05:42:00,
2014-09-22 00:47:00,47.5,43.9,30.17,West,270,8.0,10.0,87,0.00,,,0.00,meteohub,2014-09-22 05:47:00,
2014-09-22 00:52:00,47.3,43.9,30.17,West,270,7.0,10.0,88,0.00,,,0.00,meteohub,2014-09-22 05:52:00,
2014-09-22 00:55:00,46.9,43.9,30.17,West,270,7.0,10.0,89,0.00,,,0.00,meteohub,2014-09-22 05:55:00,
2014-09-22 01:00:00,46.9,44.2,30.17,West,270,8.0,10.0,90,0.00,,,0.00,meteohub,2014-09-22 06:00:00,
2014-09-22 01:05:00,46.9,44.2,30.18,West,270,8.0,9.0,90,0.00,,,0.00,meteohub,2014-09-22 06:05:00,
2014-09-22 01:10:00,46.8,43.7,30.18,West,270,9.0,9.0,89,0.00,,,0.00,meteohub,2014-09-22 06:10:00,
2014-09-22 01:16:00,46.8,43.7,30.18,West,270,8.0,9.0,89,0.00,,,0.00,meteohub,2014-09-22 06:16:00,
2014-09-22 01:21:00,46.8,43.3,30.18,West,270,8.0,9.0,88,0.00,,,0.00,meteohub,2014-09-22 06:21:00,
2014-09-22 01:26:00,46.8,43.3,30.18,West,270,6.0,9.0,88,0.00,,,0.00,meteohub,2014-09-22 06:26:00,
2014-09-22 01:31:00,46.8,43.2,30.18,West,270,8.0,10.0,87,0.00,,,0.00,meteohub,2014-09-22 06:31:00,
2014-09-22 01:36:00,46.4,42.8,30.18,West,270,6.0,10.0,87,0.00,,,0.00,meteohub,2014-09-22 06:36:00,
2014-09-22 01:41:00,46.4,42.8,30.18,West,270,7.0,10.0,87,0.00,,,0.00,meteohub,2014-09-22 06:41:00,
2014-09-22 01:46:00,46.4,42.4,30.18,West,270,7.0,9.0,86,0.00,,,0.00,meteohub,2014-09-22 06:46:00,
2014-09-22 01:51:00,46.4,42.4,30.18,West,270,8.0,10.0,86,0.00,,,0.00,meteohub,2014-09-22 06:51:00,
2014-09-22 01:56:00,46.4,41.9,30.17,West,270,6.0,10.0,84,0.00,,,0.00,meteohub,2014-09-22 06:56:00,
2014-09-22 02:01:00,46.4,41.9,30.17,West,270,4.0,10.0,84,0.00,,,0.00,meteohub,2014-09-22 07:01:00,
2014-09-22 02:06:00,46.4,41.9,30.17,West,270,4.0,8.0,84,0.00,,,0.00,meteohub,2014-09-22 07:06:00,
2014-09-22 02:11:00,45.5,41.2,30.17,West,270,2.0,7.0,85,0.00,,,0.00,meteohub,2014-09-22 07:11:00,
2014-09-22 02:16:00,45.3,40.8,30.17,West,270,4.0,4.0,84,0.00,,,0.00,meteohub,2014-09-22 07:16:00,
2014-09-22 02:22:00,45.5,40.6,30.17,West,270,6.0,6.0,83,0.00,,,0.00,meteohub,2014-09-22 07:22:00,
2014-09-22 02:27:00,45.5,40.3,30.17,West,270,5.0,6.0,82,0.00,,,0.00,meteohub,2014-09-22 07:27:00,
2014-09-22 02:32:00,45.5,40.6,30.17,West,270,5.0,6.0,83,0.00,,,0.00,meteohub,2014-09-22 07:32:00,
2014-09-22 02:37:00,45.5,40.3,30.17,West,270,5.0,6.0,82,0.00,,,0.00,meteohub,2014-09-22 07:37:00,
2014-09-22 02:42:00,45.7,40.1,30.17,West,270,4.0,6.0,81,0.00,,,0.00,meteohub,2014-09-22 07:42:00,
2014-09-22 02:47:00,45.9,39.7,30.17,West,270,3.0,5.0,79,0.00,,,0.00,meteohub,2014-09-22 07:47:00,
2014-09-22 02:52:00,45.9,39.7,30.17,West,270,3.0,5.0,79,0.00,,,0.00,meteohub,2014-09-22 07:52:00,
2014-09-22 02:57:00,45.9,39.4,30.17,West,270,3.0,4.0,78,0.00,,,0.00,meteohub,2014-09-22 07:57:00,
2014-09-22 03:02:00,46.0,39.6,30.17,West,270,0.0,4.0,78,0.00,,,0.00,meteohub,2014-09-22 08:02:00,
2014-09-22 03:07:00,46.0,39.6,30.18,West,270,0.0,4.0,78,0.00,,,0.00,meteohub,2014-09-22 08:07:00,
2014-09-22 03:12:00,45.0,39.2,30.17,West,270,0.0,3.0,80,0.00,,,0.00,meteohub,2014-09-22 08:12:00,
2014-09-22 03:17:00,44.6,39.2,30.18,West,270,0.0,0.0,81,0.00,,,0.00,meteohub,2014-09-22 08:17:00,
2014-09-22 03:22:00,44.1,38.8,30.18,West,270,0.0,0.0,82,0.00,,,0.00,meteohub,2014-09-22 08:22:00,
2014-09-22 03:27:00,43.9,39.0,30.18,West,270,0.0,0.0,83,0.00,,,0.00,meteohub,2014-09-22 08:27:00,
2014-09-22 03:31:00,43.7,38.8,30.19,West,270,0.0,0.0,83,0.00,,,0.00,meteohub,2014-09-22 08:31:00,
2014-09-22 03:36:00,43.5,39.0,30.18,West,270,3.0,3.0,84,0.00,,,0.00,meteohub,2014-09-22 08:36:00,
2014-09-22 03:41:00,43.7,39.6,30.18,West,270,4.0,4.0,85,0.00,,,0.00,meteohub,2014-09-22 08:41:00,
2014-09-22 03:42:00,43.9,39.9,30.18,West,270,4.0,4.0,86,0.00,,,0.00,meteohub,2014-09-22 08:42:00,
2014-09-22 03:47:00,44.2,40.3,30.18,West,270,4.0,4.0,86,0.00,,,0.00,meteohub,2014-09-22 08:47:00,
2014-09-22 03:52:00,44.8,40.5,30.19,West,270,0.0,4.0,85,0.00,,,0.00,meteohub,2014-09-22 08:52:00,
2014-09-22 03:57:00,44.6,40.1,30.19,West,270,0.0,4.0,84,0.00,,,0.00,meteohub,2014-09-22 08:57:00,
2014-09-22 04:02:00,44.6,40.1,30.19,West,270,0.0,4.0,84,0.00,,,0.00,meteohub,2014-09-22 09:02:00,
2014-09-22 04:07:00,44.2,39.7,30.19,West,270,0.0,0.0,84,0.00,,,0.00,meteohub,2014-09-22 09:07:00,
2014-09-22 04:12:00,44.1,39.9,30.19,West,270,0.0,0.0,85,0.00,,,0.00,meteohub,2014-09-22 09:12:00,
2014-09-22 04:17:00,43.7,39.6,30.19,West,270,0.0,0.0,85,0.00,,,0.00,meteohub,2014-09-22 09:17:00,
2014-09-22 04:22:00,43.3,39.4,30.19,West,270,0.0,0.0,86,0.00,,,0.00,meteohub,2014-09-22 09:22:00,
2014-09-22 04:27:00,43.3,39.7,30.19,West,270,0.0,0.0,87,0.00,,,0.00,meteohub,2014-09-22 09:27:00,
2014-09-22 04:33:00,43.2,39.9,30.19,West,270,0.0,0.0,88,0.00,,,0.00,meteohub,2014-09-22 09:33:00,
2014-09-22 04:38:00,43.0,39.7,30.20,West,270,0.0,0.0,88,0.00,,,0.00,meteohub,2014-09-22 09:38:00,
2014-09-22 04:43:00,43.3,40.1,30.20,West,270,0.0,0.0,88,0.00,,,0.00,meteohub,2014-09-22 09:43:00,
2014-09-22 04:48:00,43.9,40.3,30.20,West,270,3.0,3.0,87,0.00,,,0.00,meteohub,2014-09-22 09:48:00,
2014-09-22 04:53:00,44.8,40.5,30.20,West,270,4.0,4.0,85,0.00,,,0.00,meteohub,2014-09-22 09:53:00,
2014-09-22 04:58:00,45.5,40.1,30.20,West,270,2.0,5.0,81,0.00,,,0.00,meteohub,2014-09-22 09:58:00,
2014-09-22 05:03:00,45.7,39.6,30.20,West,270,3.0,5.0,79,0.00,,,0.00,meteohub,2014-09-22 10:03:00,
2014-09-22 05:08:00,46.6,39.0,30.20,West,270,4.0,5.0,75,0.00,,,0.00,meteohub,2014-09-22 10:08:00,
2014-09-22 05:13:00,47.1,38.8,30.20,West,270,4.0,6.0,73,0.00,,,0.00,meteohub,2014-09-22 10:13:00,
2014-09-22 05:18:00,47.3,38.3,30.20,West,270,4.0,7.0,71,0.00,,,0.00,meteohub,2014-09-22 10:18:00,
2014-09-22 05:23:00,47.5,38.5,30.21,West,270,3.0,7.0,71,0.00,,,0.00,meteohub,2014-09-22 10:23:00,
2014-09-22 05:28:00,47.5,38.5,30.21,West,270,0.0,5.0,71,0.00,,,0.00,meteohub,2014-09-22 10:28:00,
2014-09-22 05:33:00,47.5,38.1,30.21,West,270,4.0,5.0,70,0.00,,,0.00,meteohub,2014-09-22 10:33:00,
2014-09-22 05:39:00,47.5,37.8,30.21,West,270,4.0,5.0,69,0.00,,,0.00,meteohub,2014-09-22 10:39:00,
2014-09-22 05:44:00,47.5,37.8,30.21,West,270,4.0,5.0,69,0.00,,,0.00,meteohub,2014-09-22 10:44:00,
2014-09-22 05:49:00,47.3,37.9,30.21,West,270,2.0,5.0,70,0.00,,,0.00,meteohub,2014-09-22 10:49:00,
2014-09-22 05:54:00,47.1,37.8,30.21,West,270,4.0,5.0,70,0.00,,,0.00,meteohub,2014-09-22 10:54:00,
2014-09-22 05:59:00,47.1,38.1,30.21,West,270,6.0,6.0,71,0.00,,,0.00,meteohub,2014-09-22 10:59:00,
2014-09-22 06:04:00,47.1,38.1,30.21,West,270,6.0,6.0,71,0.00,,,0.00,meteohub,2014-09-22 11:04:00,
2014-09-22 06:09:00,46.8,37.9,30.22,West,270,3.0,6.0,71,0.00,,,0.00,meteohub,2014-09-22 11:09:00,
2014-09-22 06:14:00,46.8,37.9,30.22,West,270,5.0,6.0,71,0.00,,,0.00,meteohub,2014-09-22 11:14:00,
2014-09-22 06:19:00,46.6,38.1,30.22,West,270,4.0,6.0,72,0.00,,,0.00,meteohub,2014-09-22 11:19:00,
2014-09-22 06:24:00,46.2,37.8,30.22,West,270,0.0,6.0,72,0.00,,,0.00,meteohub,2014-09-22 11:24:00,
2014-09-22 06:29:00,46.0,37.6,30.22,West,270,2.0,5.0,72,0.00,,,0.00,meteohub,2014-09-22 11:29:00,
2014-09-22 06:34:00,45.7,37.6,30.22,West,270,2.0,4.0,73,0.00,,,0.00,meteohub,2014-09-22 11:34:00,
2014-09-22 06:40:00,45.5,37.4,30.22,West,270,0.0,4.0,73,0.00,,,0.00,meteohub,2014-09-22 11:40:00,
2014-09-22 06:45:00,44.8,37.4,30.23,West,270,0.0,3.0,75,0.00,,,0.00,meteohub,2014-09-22 11:45:00,
2014-09-22 06:50:00,44.1,37.4,30.22,West,270,0.0,3.0,77,0.00,,,0.00,meteohub,2014-09-22 11:50:00,
2014-09-22 06:55:00,43.9,38.1,30.23,West,270,0.0,1.0,80,0.00,,,0.00,meteohub,2014-09-22 11:55:00,
2014-09-22 07:00:00,43.7,38.3,30.23,West,270,0.0,0.0,81,0.00,,,0.00,meteohub,2014-09-22 12:00:00,
2014-09-22 07:05:00,43.9,38.5,30.23,West,270,2.0,0.0,81,0.00,,,0.00,meteohub,2014-09-22 12:05:00,
2014-09-22 07:10:00,44.1,38.3,30.23,West,270,3.0,4.0,80,0.00,,,0.00,meteohub,2014-09-22 12:10:00,
2014-09-22 07:15:00,44.2,38.5,30.24,West,270,3.0,4.0,80,0.00,,,0.00,meteohub,2014-09-22 12:15:00,
2014-09-22 07:20:00,44.6,38.8,30.24,West,270,3.0,4.0,80,0.00,,,0.00,meteohub,2014-09-22 12:20:00,
2014-09-22 07:25:00,45.0,39.2,30.23,West,270,3.0,3.0,80,0.00,,,0.00,meteohub,2014-09-22 12:25:00,
2014-09-22 07:30:00,45.1,39.4,30.23,West,270,4.0,4.0,80,0.00,,,0.00,meteohub,2014-09-22 12:30:00,
2014-09-22 07:35:00,45.7,39.6,30.23,West,270,4.0,4.0,79,0.00,,,0.00,meteohub,2014-09-22 12:35:00,
2014-09-22 07:40:00,45.9,40.1,30.24,West,270,4.0,4.0,80,0.00,,,0.00,meteohub,2014-09-22 12:40:00,
2014-09-22 07:46:00,46.0,40.3,30.24,West,270,4.0,4.0,80,0.00,,,0.00,meteohub,2014-09-22 12:46:00,
2014-09-22 07:51:00,46.4,40.6,30.24,West,270,4.0,4.0,80,0.00,,,0.00,meteohub,2014-09-22 12:51:00,
2014-09-22 07:56:00,46.8,40.6,30.25,West,270,4.0,4.0,79,0.00,,,0.00,meteohub,2014-09-22 12:56:00,
2014-09-22 08:01:00,47.3,40.8,30.24,West,270,4.0,4.0,78,0.00,,,0.00,meteohub,2014-09-22 13:01:00,
2014-09-22 08:06:00,48.2,41.7,30.25,West,270,3.0,4.0,78,0.00,,,0.00,meteohub,2014-09-22 13:06:00,
2014-09-22 08:11:00,48.7,41.5,30.24,West,270,5.0,5.0,76,0.00,,,0.00,meteohub,2014-09-22 13:11:00,
2014-09-22 08:16:00,49.5,42.3,30.24,West,270,4.0,5.0,76,0.00,,,0.00,meteohub,2014-09-22 13:16:00,
2014-09-22 08:21:00,49.8,42.3,30.25,West,270,4.0,5.0,75,0.00,,,0.00,meteohub,2014-09-22 13:21:00,
2014-09-22 08:26:00,50.2,42.3,30.25,West,270,4.0,5.0,74,0.00,,,0.00,meteohub,2014-09-22 13:26:00,
2014-09-22 08:31:00,50.7,43.5,30.25,West,270,4.0,5.0,76,0.00,,,0.00,meteohub,2014-09-22 13:31:00,
2014-09-22 08:36:00,51.3,43.3,30.25,West,270,4.0,6.0,74,0.00,,,0.00,meteohub,2014-09-22 13:36:00,
2014-09-22 08:41:00,51.4,41.9,30.25,West,270,7.0,7.0,70,0.00,,,0.00,meteohub,2014-09-22 13:41:00,
2014-09-22 08:46:00,51.6,41.7,30.25,SW,225,7.0,7.0,69,0.00,,,0.00,meteohub,2014-09-22 13:46:00,
2014-09-22 08:52:00,52.0,42.1,30.25,SW,225,5.0,8.0,69,0.00,,,0.00,meteohub,2014-09-22 13:52:00,
2014-09-22 08:57:00,52.5,41.9,30.25,SW,225,7.0,8.0,67,0.00,,,0.00,meteohub,2014-09-22 13:57:00,
2014-09-22 09:02:00,53.2,41.0,30.25,SW,225,7.0,8.0,63,0.00,,,0.00,meteohub,2014-09-22 14:02:00,
2014-09-22 09:07:00,53.6,40.5,30.25,SW,225,9.0,9.0,61,0.00,,,0.00,meteohub,2014-09-22 14:07:00,
2014-09-22 09:12:00,54.0,41.2,30.25,SW,225,7.0,9.0,62,0.00,,,0.00,meteohub,2014-09-22 14:12:00,
2014-09-22 09:17:00,54.3,40.3,30.25,West,270,8.0,9.0,59,0.00,,,0.00,meteohub,2014-09-22 14:17:00,
2014-09-22 09:22:00,54.7,41.5,30.25,West,270,7.0,9.0,61,0.00,,,0.00,meteohub,2014-09-22 14:22:00,
2014-09-22 09:27:00,55.2,40.6,30.25,West,270,7.0,8.0,58,0.00,,,0.00,meteohub,2014-09-22 14:27:00,
2014-09-22 09:32:00,55.4,39.9,30.25,West,270,7.0,8.0,56,0.00,,,0.00,meteohub,2014-09-22 14:32:00,
2014-09-22 09:37:00,55.6,40.1,30.25,West,270,8.0,8.0,56,0.00,,,0.00,meteohub,2014-09-22 14:37:00,
2014-09-22 09:42:00,55.9,41.0,30.25,West,270,8.0,8.0,57,0.00,,,0.00,meteohub,2014-09-22 14:42:00,
2014-09-22 09:47:00,56.1,41.2,30.25,West,270,8.0,8.0,57,0.00,,,0.00,meteohub,2014-09-22 14:47:00,
2014-09-22 09:52:00,56.3,41.2,30.26,West,270,8.0,8.0,57,0.00,,,0.00,meteohub,2014-09-22 14:52:00,
2014-09-22 09:57:00,58.1,43.9,30.25,West,270,8.0,8.0,59,0.00,,,0.00,meteohub,2014-09-22 14:57:00,
2014-09-22 10:02:00,57.2,42.1,30.26,West,270,6.0,8.0,57,0.00,,,0.00,meteohub,2014-09-22 15:02:00,
2014-09-22 10:07:00,57.9,41.9,30.25,West,270,9.0,9.0,55,0.00,,,0.00,meteohub,2014-09-22 15:07:00,
2014-09-22 10:12:00,58.1,43.0,30.26,West,270,6.0,9.0,57,0.00,,,0.00,meteohub,2014-09-22 15:12:00,
2014-09-22 10:17:00,58.5,40.8,30.26,West,270,10.0,10.0,52,0.00,,,0.00,meteohub,2014-09-22 15:17:00,
2014-09-22 10:22:00,58.6,41.0,30.26,West,270,9.0,10.0,52,0.00,,,0.00,meteohub,2014-09-22 15:22:00,
2014-09-22 10:27:00,58.8,43.2,30.26,West,270,6.0,10.0,56,0.00,,,0.00,meteohub,2014-09-22 15:27:00,
2014-09-22 10:32:00,59.2,43.5,30.26,West,270,8.0,10.0,56,0.00,,,0.00,meteohub,2014-09-22 15:32:00,
2014-09-22 10:37:00,59.7,43.0,30.26,West,270,7.0,10.0,54,0.00,,,0.00,meteohub,2014-09-22 15:37:00,
2014-09-22 10:42:00,60.1,42.4,30.26,West,270,7.0,10.0,52,0.00,,,0.00,meteohub,2014-09-22 15:42:00,
2014-09-22 10:47:00,60.3,42.1,30.26,West,270,8.0,10.0,51,0.00,,,0.00,meteohub,2014-09-22 15:47:00,
2014-09-22 10:52:00,60.8,43.0,30.26,West,270,5.0,9.0,52,0.00,,,0.00,meteohub,2014-09-22 15:52:00,
2014-09-22 10:57:00,61.0,40.6,30.26,West,270,8.0,9.0,47,0.00,,,0.00,meteohub,2014-09-22 15:57:00,
2014-09-22 11:02:00,61.0,42.8,30.27,West,270,8.0,10.0,51,0.00,,,0.00,meteohub,2014-09-22 16:02:00,
2014-09-22 11:07:00,61.2,43.3,30.26,West,270,6.0,10.0,52,0.00,,,0.00,meteohub,2014-09-22 16:07:00,
2014-09-22 11:12:00,61.7,42.3,30.26,West,270,8.0,10.0,49,0.00,,,0.00,meteohub,2014-09-22 16:12:00,
2014-09-22 11:17:00,61.7,42.8,30.26,NW,315,7.0,10.0,50,0.00,,,0.00,meteohub,2014-09-22 16:17:00,
2014-09-22 11:22:00,62.1,42.6,30.26,NW,315,5.0,10.0,49,0.00,,,0.00,meteohub,2014-09-22 16:22:00,
2014-09-22 11:27:00,62.4,43.5,30.26,NW,315,8.0,10.0,50,0.00,,,0.00,meteohub,2014-09-22 16:27:00,
2014-09-22 11:32:00,62.4,41.9,30.26,NW,315,10.0,10.0,47,0.00,,,0.00,meteohub,2014-09-22 16:32:00,
2014-09-22 11:37:00,62.2,41.7,30.26,NW,315,8.0,10.0,47,0.00,,,0.00,meteohub,2014-09-22 16:37:00,
2014-09-22 11:42:00,62.2,43.3,30.26,WNW,293,8.0,10.0,50,0.00,,,0.00,meteohub,2014-09-22 16:42:00,
2014-09-22 11:47:00,62.6,42.6,30.25,WNW,293,11.0,11.0,48,0.00,,,0.00,meteohub,2014-09-22 16:47:00,
2014-09-22 11:52:00,62.8,42.8,30.26,WNW,293,11.0,11.0,48,0.00,,,0.00,meteohub,2014-09-22 16:52:00,
2014-09-22 11:57:00,63.0,42.4,30.26,West,270,11.0,11.0,47,0.00,,,0.00,meteohub,2014-09-22 16:57:00,
2014-09-22 12:02:00,63.0,42.4,30.25,West,270,11.0,12.0,47,0.00,,,0.00,meteohub,2014-09-22 17:02:00,
2014-09-22 12:07:00,63.1,43.2,30.25,WNW,293,8.0,12.0,48,0.00,,,0.00,meteohub,2014-09-22 17:07:00,
2014-09-22 12:12:00,63.5,43.0,30.25,West,270,8.0,12.0,47,0.00,,,0.00,meteohub,2014-09-22 17:12:00,
2014-09-22 12:17:00,63.9,43.2,30.25,West,270,5.0,11.0,47,0.00,,,0.00,meteohub,2014-09-22 17:17:00,
2014-09-22 12:22:00,63.9,42.6,30.25,West,270,11.0,11.0,46,0.00,,,0.00,meteohub,2014-09-22 17:22:00,
2014-09-22 12:27:00,63.9,42.1,30.25,West,270,8.0,11.0,45,0.00,,,0.00,meteohub,2014-09-22 17:27:00,
2014-09-22 12:32:00,63.9,42.1,30.24,West,270,9.0,13.0,45,0.00,,,0.00,meteohub,2014-09-22 17:32:00,
2014-09-22 12:37:00,64.4,42.6,30.24,SW,225,15.0,15.0,45,0.00,,,0.00,meteohub,2014-09-22 17:37:00,
2014-09-22 12:42:00,64.4,42.6,30.24,SW,225,8.0,15.0,45,0.00,,,0.00,meteohub,2014-09-22 17:42:00,
2014-09-22 12:47:00,64.6,42.3,30.24,WSW,248,11.0,15.0,44,0.00,,,0.00,meteohub,2014-09-22 17:47:00,
2014-09-22 12:52:00,64.8,41.7,30.24,WSW,248,8.0,15.0,43,0.00,,,0.00,meteohub,2014-09-22 17:52:00,
2014-09-22 12:57:00,65.3,44.1,30.23,WSW,248,7.0,13.0,46,0.00,,,0.00,meteohub,2014-09-22 17:57:00,
2014-09-22 13:02:00,65.5,42.4,30.24,West,270,7.0,13.0,43,0.00,,,0.00,meteohub,2014-09-22 18:02:00,
2014-09-22 13:07:00,65.7,41.9,30.23,West,270,12.0,12.0,42,0.00,,,0.00,meteohub,2014-09-22 18:07:00,
2014-09-22 13:12:00,65.7,43.2,30.23,West,270,8.0,12.0,44,0.00,,,0.00,meteohub,2014-09-22 18:12:00,
2014-09-22 13:17:00,65.8,42.8,30.23,SW,225,11.0,12.0,43,0.00,,,0.00,meteohub,2014-09-22 18:17:00,
2014-09-22 13:22:00,66.2,44.2,30.23,SW,225,10.0,12.0,45,0.00,,,0.00,meteohub,2014-09-22 18:22:00,
2014-09-22 13:27:00,66.2,43.7,30.23,SW,225,7.0,13.0,44,0.00,,,0.00,meteohub,2014-09-22 18:27:00,
2014-09-22 13:32:00,66.7,44.1,30.22,North,0,8.0,13.0,44,0.00,,,0.00,meteohub,2014-09-22 18:32:00,
2014-09-22 13:37:00,66.7,43.0,30.22,North,0,11.0,11.0,42,0.00,,,0.00,meteohub,2014-09-22 18:37:00,
2014-09-22 13:42:00,66.4,42.6,30.22,North,0,12.0,13.0,42,0.00,,,0.00,meteohub,2014-09-22 18:42:00,
2014-09-22 13:47:00,66.4,43.2,30.22,North,0,8.0,15.0,43,0.00,,,0.00,meteohub,2014-09-22 18:47:00,
2014-09-22 13:52:00,66.9,42.4,30.22,North,0,5.0,15.0,41,0.00,,,0.00,meteohub,2014-09-22 18:52:00,
2014-09-22 13:57:00,67.8,44.4,30.22,North,0,9.0,15.0,43,0.00,,,0.00,meteohub,2014-09-22 18:57:00,
2014-09-22 14:02:00,67.3,42.1,30.22,North,0,6.0,11.0,40,0.00,,,0.00,meteohub,2014-09-22 19:02:00,
2014-09-22 14:07:00,67.5,43.5,30.22,North,0,11.0,15.0,42,0.00,,,0.00,meteohub,2014-09-22 19:07:00,
2014-09-22 14:12:00,67.5,42.3,30.22,North,0,4.0,19.0,40,0.00,,,0.00,meteohub,2014-09-22 19:12:00,
2014-09-22 14:17:00,67.8,43.3,30.21,North,0,9.0,19.0,41,0.00,,,0.00,meteohub,2014-09-22 19:17:00,
2014-09-22 14:22:00,68.0,44.1,30.21,North,0,5.0,14.0,42,0.00,,,0.00,meteohub,2014-09-22 19:22:00,
2014-09-22 14:27:00,68.2,44.2,30.21,North,0,9.0,9.0,42,0.00,,,0.00,meteohub,2014-09-22 19:27:00,
2014-09-22 14:32:00,68.4,44.4,30.21,North,0,5.0,12.0,42,0.00,,,0.00,meteohub,2014-09-22 19:32:00,
2014-09-22 14:37:00,68.5,43.3,30.22,North,0,7.0,12.0,40,0.00,,,0.00,meteohub,2014-09-22 19:37:00,
2014-09-22 14:42:00,68.4,44.4,30.21,North,0,8.0,12.0,42,0.00,,,0.00,meteohub,2014-09-22 19:42:00,
2014-09-22 14:47:00,68.4,45.0,30.21,North,0,4.0,11.0,43,0.00,,,0.00,meteohub,2014-09-22 19:47:00,
2014-09-22 14:52:00,68.5,43.9,30.21,North,0,8.0,11.0,41,0.00,,,0.00,meteohub,2014-09-22 19:52:00,
2014-09-22 14:57:00,68.5,44.6,30.21,North,0,4.0,11.0,42,0.00,,,0.00,meteohub,2014-09-22 19:57:00,
2014-09-22 15:02:00,68.9,44.2,30.20,North,0,8.0,9.0,41,0.00,,,0.00,meteohub,2014-09-22 20:02:00,
2014-09-22 15:07:00,68.5,42.6,30.21,North,0,11.0,13.0,39,0.00,,,0.00,meteohub,2014-09-22 20:07:00,
2014-09-22 15:12:00,68.2,43.5,30.20,NNW,338,6.0,13.0,41,0.00,,,0.00,meteohub,2014-09-22 20:12:00,
2014-09-22 15:15:00,68.4,43.2,30.20,NNW,338,15.0,15.0,40,0.00,,,0.00,meteohub,2014-09-22 20:15:00,
2014-09-22 15:20:00,68.2,43.5,30.20,NNW,338,7.0,13.0,41,0.00,,,0.00,meteohub,2014-09-22 20:20:00,
2014-09-22 15:25:00,68.2,44.2,30.20,NNW,338,7.0,15.0,42,0.00,,,0.00,meteohub,2014-09-22 20:25:00,
2014-09-22 15:30:00,68.2,44.2,30.20,NNW,338,5.0,15.0,42,0.00,,,0.00,meteohub,2014-09-22 20:30:00,
2014-09-22 15:35:00,68.4,44.4,30.20,NNW,338,8.0,15.0,42,0.00,,,0.00,meteohub,2014-09-22 20:35:00,
2014-09-22 15:40:00,68.4,44.4,30.19,NNW,338,11.0,11.0,42,0.00,,,0.00,meteohub,2014-09-22 20:40:00,
2014-09-22 15:45:00,68.4,43.7,30.20,NNW,338,7.0,12.0,41,0.00,,,0.00,meteohub,2014-09-22 20:45:00,
2014-09-22 15:50:00,68.5,44.6,30.19,NNW,338,7.0,12.0,42,0.00,,,0.00,meteohub,2014-09-22 20:50:00,
2014-09-22 15:55:00,68.5,43.3,30.20,NNW,338,11.0,12.0,40,0.00,,,0.00,meteohub,2014-09-22 20:55:00,
2014-09-22 16:00:00,68.2,43.5,30.19,NNW,338,8.0,12.0,41,0.00,,,0.00,meteohub,2014-09-22 21:00:00,
2014-09-22 16:05:00,68.2,44.2,30.19,NNW,338,10.0,11.0,42,0.00,,,0.00,meteohub,2014-09-22 21:05:00,
2014-09-22 16:10:00,68.4,44.4,30.19,NW,315,4.0,12.0,42,0.00,,,0.00,meteohub,2014-09-22 21:10:00,
2014-09-22 16:16:00,68.7,42.8,30.19,NW,315,10.0,12.0,39,0.00,,,0.00,meteohub,2014-09-22 21:16:00,
2014-09-22 16:21:00,68.5,43.9,30.19,NW,315,8.0,12.0,41,0.00,,,0.00,meteohub,2014-09-22 21:21:00,
2014-09-22 16:26:00,68.7,44.1,30.19,NW,315,6.0,11.0,41,0.00,,,0.00,meteohub,2014-09-22 21:26:00,
2014-09-22 16:31:00,68.7,44.1,30.19,NW,315,8.0,11.0,41,0.00,,,0.00,meteohub,2014-09-22 21:31:00,
2014-09-22 16:36:00,69.1,45.0,30.19,NW,315,4.0,11.0,42,0.00,,,0.00,meteohub,2014-09-22 21:36:00,
2014-09-22 16:41:00,69.1,43.7,30.19,NW,315,7.0,11.0,40,0.00,,,0.00,meteohub,2014-09-22 21:41:00,
2014-09-22 16:46:00,68.7,43.3,30.19,NW,315,6.0,10.0,40,0.00,,,0.00,meteohub,2014-09-22 21:46:00,
2014-09-22 16:50:00,68.9,44.2,30.19,NW,315,5.0,10.0,41,0.00,,,0.00,meteohub,2014-09-22 21:50:00,
2014-09-22 16:55:00,68.5,43.3,30.19,NW,315,5.0,10.0,40,0.00,,,0.00,meteohub,2014-09-22 21:55:00,
2014-09-22 17:00:00,68.2,43.0,30.19,NW,315,11.0,11.0,40,0.00,,,0.00,meteohub,2014-09-22 22:00:00,
2014-09-22 17:05:00,68.2,43.0,30.19,NW,315,9.0,11.0,40,0.00,,,0.00,meteohub,2014-09-22 22:05:00,
2014-09-22 17:09:00,68.2,43.5,30.19,NW,315,6.0,11.0,41,0.00,,,0.00,meteohub,2014-09-22 22:09:00,
2014-09-22 17:14:00,68.0,44.1,30.19,NW,315,5.0,11.0,42,0.00,,,0.00,meteohub,2014-09-22 22:14:00,
2014-09-22 17:19:00,68.0,43.3,30.19,NW,315,8.0,11.0,41,0.00,,,0.00,meteohub,2014-09-22 22:19:00,
2014-09-22 17:24:00,68.2,43.5,30.19,NW,315,8.0,9.0,41,0.00,,,0.00,meteohub,2014-09-22 22:24:00,
2014-09-22 17:29:00,68.0,43.3,30.19,NW,315,7.0,8.0,41,0.00,,,0.00,meteohub,2014-09-22 22:29:00,
2014-09-22 17:34:00,67.8,43.3,30.19,NW,315,8.0,9.0,41,0.00,,,0.00,meteohub,2014-09-22 22:34:00,
2014-09-22 17:39:00,67.8,43.9,30.19,NW,315,8.0,9.0,42,0.00,,,0.00,meteohub,2014-09-22 22:39:00,
2014-09-22 17:45:00,68.0,44.1,30.19,NW,315,7.0,9.0,42,0.00,,,0.00,meteohub,2014-09-22 22:45:00,
2014-09-22 17:50:00,67.5,43.5,30.19,NW,315,8.0,8.0,42,0.00,,,0.00,meteohub,2014-09-22 22:50:00,
2014-09-22 17:55:00,67.3,44.1,30.19,NW,315,4.0,8.0,43,0.00,,,0.00,meteohub,2014-09-22 22:55:00,
2014-09-22 18:00:00,67.1,44.4,30.19,NW,315,5.0,8.0,44,0.00,,,0.00,meteohub,2014-09-22 23:00:00,
2014-09-22 18:05:00,66.7,44.1,30.19,NW,315,5.0,8.0,44,0.00,,,0.00,meteohub,2014-09-22 23:05:00,
2014-09-22 18:10:00,66.6,44.6,30.19,NW,315,8.0,8.0,45,0.00,,,0.00,meteohub,2014-09-22 23:10:00,
2014-09-22 18:15:00,66.2,44.8,30.19,NW,315,4.0,8.0,46,0.00,,,0.00,meteohub,2014-09-22 23:15:00,
2014-09-22 18:20:00,65.3,44.6,30.19,NW,315,4.0,8.0,47,0.00,,,0.00,meteohub,2014-09-22 23:20:00,
2014-09-22 18:23:00,64.9,44.8,30.19,NW,315,4.0,8.0,48,0.00,,,0.00,meteohub,2014-09-22 23:23:00,
2014-09-22 18:28:00,64.4,44.8,30.19,NW,315,4.0,8.0,49,0.00,,,0.00,meteohub,2014-09-22 23:28:00,
2014-09-22 18:33:00,64.0,45.5,30.18,NW,315,4.0,7.0,51,0.00,,,0.00,meteohub,2014-09-22 23:33:00,
2014-09-22 18:38:00,63.9,45.3,30.19,NW,315,2.0,6.0,51,0.00,,,0.00,meteohub,2014-09-22 23:38:00,
2014-09-22 18:43:00,63.7,45.7,30.19,NW,315,2.0,6.0,52,0.00,,,0.00,meteohub,2014-09-22 23:43:00,
2014-09-22 18:48:00,63.3,45.3,30.19,NW,315,2.0,4.0,52,0.00,,,0.00,meteohub,2014-09-22 23:48:00,
2014-09-22 18:53:00,63.0,45.5,30.19,NW,315,2.0,3.0,53,0.00,,,0.00,meteohub,2014-09-22 23:53:00,
2014-09-22 18:58:00,62.6,46.2,30.19,NW,315,2.0,3.0,55,0.00,,,0.00,meteohub,2014-09-22 23:58:00,
2014-09-22 19:03:00,62.1,46.2,30.19,NW,315,2.0,3.0,56,0.00,,,0.00,meteohub,2014-09-23 00:03:00,
2014-09-22 19:08:00,61.5,46.6,30.19,NW,315,2.0,3.0,58,0.00,,,0.00,meteohub,2014-09-23 00:08:00,
2014-09-22 19:13:00,61.2,46.8,30.19,NW,315,2.0,2.0,59,0.00,,,0.00,meteohub,2014-09-23 00:13:00,
2014-09-22 19:19:00,61.0,46.6,30.19,NW,315,2.0,2.0,59,0.00,,,0.00,meteohub,2014-09-23 00:19:00,
2014-09-22 19:24:00,61.0,46.6,30.19,NW,315,2.0,2.0,59,0.00,,,0.00,meteohub,2014-09-23 00:24:00,
2014-09-22 19:29:00,61.0,46.9,30.19,NW,315,2.0,2.0,60,0.00,,,0.00,meteohub,2014-09-23 00:29:00,
2014-09-22 19:34:00,60.8,46.8,30.19,NW,315,2.0,2.0,60,0.00,,,0.00,meteohub,2014-09-23 00:34:00,
2014-09-22 19:39:00,60.6,46.6,30.19,NW,315,3.0,3.0,60,0.00,,,0.00,meteohub,2014-09-23 00:39:00,
2014-09-22 19:44:00,60.4,47.3,30.19,NW,315,3.0,3.0,62,0.00,,,0.00,meteohub,2014-09-23 00:44:00,
2014-09-22 19:49:00,60.4,47.3,30.20,NW,315,3.0,4.0,62,0.00,,,0.00,meteohub,2014-09-23 00:49:00,
2014-09-22 19:54:00,59.7,47.5,30.20,NW,315,2.0,4.0,64,0.00,,,0.00,meteohub,2014-09-23 00:54:00,
2014-09-22 19:59:00,59.4,47.7,30.20,NW,315,2.0,4.0,65,0.00,,,0.00,meteohub,2014-09-23 00:59:00,
2014-09-22 20:04:00,59.4,47.7,30.20,NW,315,2.0,4.0,65,0.00,,,0.00,meteohub,2014-09-23 01:04:00,
2014-09-22 20:09:00,59.4,47.7,30.20,NW,315,3.0,4.0,65,0.00,,,0.00,meteohub,2014-09-23 01:09:00,
2014-09-22 20:14:00,59.5,47.8,30.21,NW,315,4.0,4.0,65,0.00,,,0.00,meteohub,2014-09-23 01:14:00,
2014-09-22 20:19:00,59.4,47.7,30.20,NW,315,3.0,4.0,65,0.00,,,0.00,meteohub,2014-09-23 01:19:00,
2014-09-22 20:25:00,59.4,48.0,30.21,NW,315,4.0,4.0,66,0.00,,,0.00,meteohub,2014-09-23 01:25:00,
2014-09-22 20:30:00,59.5,47.8,30.21,NW,315,4.0,4.0,65,0.00,,,0.00,meteohub,2014-09-23 01:30:00,
2014-09-22 20:35:00,59.0,48.0,30.21,NW,315,3.0,4.0,67,0.00,,,0.00,meteohub,2014-09-23 01:35:00,
2014-09-22 20:40:00,58.5,48.0,30.21,NW,315,3.0,4.0,68,0.00,,,0.00,meteohub,2014-09-23 01:40:00,
2014-09-22 20:45:00,58.1,48.0,30.21,NW,315,3.0,4.0,69,0.00,,,0.00,meteohub,2014-09-23 01:45:00,
2014-09-22 20:50:00,57.9,47.8,30.21,NW,315,3.0,4.0,69,0.00,,,0.00,meteohub,2014-09-23 01:50:00,
2014-09-22 20:55:00,58.1,48.0,30.21,NW,315,3.0,4.0,69,0.00,,,0.00,meteohub,2014-09-23 01:55:00,
2014-09-22 21:00:00,58.1,48.0,30.21,NW,315,3.0,4.0,69,0.00,,,0.00,meteohub,2014-09-23 02:00:00,
2014-09-22 21:05:00,58.1,48.0,30.21,NW,315,3.0,4.0,69,0.00,,,0.00,meteohub,2014-09-23 02:05:00,
2014-09-22 21:10:00,57.9,47.8,30.21,NW,315,4.0,4.0,69,0.00,,,0.00,meteohub,2014-09-23 02:10:00,
2014-09-22 21:15:00,58.1,48.0,30.21,NW,315,4.0,4.0,69,0.00,,,0.00,meteohub,2014-09-23 02:15:00,
2014-09-22 21:20:00,57.9,47.8,30.22,NW,315,4.0,4.0,69,0.00,,,0.00,meteohub,2014-09-23 02:20:00,
2014-09-22 21:26:00,57.9,47.8,30.21,NW,315,4.0,4.0,69,0.00,,,0.00,meteohub,2014-09-23 02:26:00,
2014-09-22 21:31:00,57.9,47.8,30.21,NW,315,4.0,4.0,69,0.00,,,0.00,meteohub,2014-09-23 02:31:00,
2014-09-22 21:36:00,57.9,47.8,30.22,NW,315,4.0,4.0,69,0.00,,,0.00,meteohub,2014-09-23 02:36:00,
2014-09-22 21:41:00,57.7,47.7,30.22,NW,315,4.0,4.0,69,0.00,,,0.00,meteohub,2014-09-23 02:41:00,
2014-09-22 21:46:00,57.6,47.5,30.22,NW,315,4.0,4.0,69,0.00,,,0.00,meteohub,2014-09-23 02:46:00,
2014-09-22 21:51:00,57.6,47.5,30.22,NW,315,4.0,4.0,69,0.00,,,0.00,meteohub,2014-09-23 02:51:00,